www.pogodaiklimat.ru

Погода и климат >> Архив погоды >> Аргентина >> Сан-Луис


ПОГОДА в Сан-Луисе

  • Прогноз погоды в Сан-Луисе
  • Монитор погоды в Сан-Луисе

АРХИВ ПОГОДЫ в Сан-Луисе

Время (UTC), дата Ветер
(напр.,м/с)
 
Видим.   Явления Облачность Т
(С)
Тd
(С)
f
(%)
Тe
(С)
Тes
(С)
Комфортность P
(гПа)
Po
(гПа)
Тmin
(С)
Tmax
(С)
R
(мм)
R24
(мм)
S
(см)
06 19.03 В 4 20 км 5/5 1050 м
[Sc]
+16.9 +10.8 67 +17 +17 1009.8 930.6
09 19.03 В 9 15 км слаб. дождь 9/9 1050 м
[Sc]
+11.9 +9.8 87 +8 +8 1014.1 933.7
12 19.03 В 7 20 км {дождь} 9/9 540 м
[St]
+13.5 +7.8 68 +11 +11 1017.2 936.2 +11.5 +22.1 0.2
15 19.03 ЮВ 8 20 км 9/0 1050 м
[As trans]
+12.5 +3.4 54 +10 +11 1019.9 938.1
18 19.03 В 8 20 км 6/6 1050 м
[Sc]
+15.9 +5.6 50 +14 +15 1018.5 937.0
21 19.03 В 8 20 км 8/8 900 м
[St]
+16.4 +6.3 51 +15 +15 1020.0 937.8
00 20.03 В 7 20 км 5/3 1200 м
[Sc Ac trans]
+14.3 +8.1 66 +12 +12 1021.7 939.4 +11.9 +17.5
03 20.03 ЮВ 4 20 км 1/0
[Ac As]
+13.1 +6.0 62 +12 +12 1024.9 942.0
06 20.03 В 6 20 км ясно +11.2 +6.7 74 +8 +8 1024.2 941.6
09 20.03 В 6 20 км 1/0
[Ac trans Ci sp]
+12.0 +2.2 51 +10 +10 1023.3 940.5
12 20.03 В 5 20 км 4/0
[Ac As]
+14.5 -3.6 28 +13 +14 1023.4 941.0 +10.2 +14.6
15 20.03 В 4 20 км 3/0
[Ac As Ci sp]
+18.3 +1.2 32 +18 +27 1023.1 941.0
18 20.03 В 6 20 км 5/0
[Cs]
+21.2 -0.3 24 +21 +26 комфорт 1021.1 939.4
21 20.03 В 7 20 км 4/0
[Ac trans Cs]
+19.4 +4.9 38 +19 +20 1019.9 938.2
00 21.03 В 9 20 км 1/0
[Ci sp]
+13.8 +6.8 63 +11 +11 1021.7 939.4 +13.4 +21.9
03 21.03 СВ 3 20 км 4/0
[Cs]
+12.2 +5.8 65 +11 +11 1021.7 939.7
06 21.03 С 4 20 км 9/0
[Cs]
+11.3 +7.1 75 +9 +9 1020.2 938.6
09 21.03 С 4 20 км 9/0
[Ac As Cs]
+12.8 +7.9 72 +11 +11 1018.4 936.9
12 21.03 С 7 20 км 4/1 1200 м
[Sc Ac As]
+15.1 +8.4 64 +13 +14 1018.6 936.6 +10.0 +15.1
15 21.03 С 9 20 км 3/1 1200 м
[Sc Ac As]
+19.4 +7.7 47 +19 +20 1018.0 936.5
18 21.03 С 7 20 км 3/1 1200 м
[Cu hum Cs]
+21.2 +7.8 42 +22 +25 комфорт 1015.4 934.2
21 21.03 С 6 20 км 5/1 1200 м
[Cu hum Ci]
+19.6 +8.0 47 +20 +21 1013.7 932.6
00 22.03 С 3 20 км 4/0
[Cs]
+15.6 +8.1 61 +15 +15 1014.4 933.0 +15.1 +22.0
03 22.03 С 3 20 км 1/0
[Cs]
+11.7 +7.5 75 +10 +10 1015.8 934.4
06 22.03 С 4 20 км ясно +12.9 +8.0 72 +11 +11 1015.0 934.0
09 22.03 С 3 20 км ясно +10.7 +8.5 86 +9 +9 1015.7 934.2
12 22.03 С 4 20 км ясно +14.2 +9.5 73 +13 +15 1017.8 936.0 +9.4 +15.7
15 22.03 С 4 20 км 3/1 1200 м
[Sc Cs]
+21.0 +9.9 49 +23 +30 комфорт 1017.9 936.5
18 22.03 СЗ 3 20 км ясно +24.1 +11.1 44 +25 +36 комфорт 1015.0 934.4
21 22.03 В 2 20 км ясно +25.2 +11.8 43 +27 +29 жарко 1012.5 932.0
00 23.03 С 3 20 км ясно +19.0 +12.4 66 +20 +20 1015.0 933.8 +14.2 +25.9
03 23.03 С 4 20 км ясно +16.5 +10.7 69 +16 +16 1015.3 934.8
06 23.03 С 4 20 км ясно +14.7 +10.5 76 +14 +14 1013.7 933.4
09 23.03 С 4 20 км 1/0
[Cs]
+16.0 +10.9 72 +15 +15 1012.1 932.2
12 23.03 С 4 20 км 5/0
[Ci]
+16.9 +12.7 76 +16 +18 1013.4 932.8 +12.9 +19.0
15 23.03 С 6 20 км 4/0
[Ci]
+23.6 +13.2 52 +26 +31 жарко 1012.8 932.8
18 23.03 СЗ 5 20 км 3/0
[Ci]
+27.7 +10.8 35 +28 +35 жарко 1011.0 931.4
21 23.03 ЮЗ 1 20 км 1/0
[Cs]
+27.9 +13.3 41 +30 +32 жарко 1010.1 930.8
00 24.03 С 2 20 км ясно +23.0 +12.1 50 +26 +26 жарко 1012.6 932.6 +16.4 +28.6
03 24.03 В 3 20 км ясно +22.2 +12.1 53 +25 +25 комфорт 1014.5 935.0
06 24.03 В 4 20 км ясно +18.3 +12.0 67 +18 +18 1016.2 936.6
09 24.03 В 7 20 км ясно +15.7 +8.7 63 +14 +14 1016.6 936.8
12 24.03 В 10 20 км 1/0
[Ac As]
+15.6 +3.3 44 +14 +14 1019.3 938.6 +13.9 +24.3
15 24.03 В 7 20 км 6/3 1200 м
[Sc Ac und]
+21.8 +5.0 33 +22 +24 комфорт 1018.8 938.8
18 24.03 В 8 20 км 4/1 1200 м
[Sc Ac As]
+23.0 +4.1 29 +23 +24 комфорт 1017.1 936.9
21 24.03 ЮВ 8 20 км 6/1 1200 м
[Sc Ac As Cs]
+23.3 +4.3 29 +23 +23 комфорт 1015.2 934.9
00 25.03 В 9 20 км 3/1 1200 м
[Sc Ac As]
+18.4 +5.8 44 +18 +18 1016.7 935.6 +15.6 +24.2
03 25.03 В 4 20 км ясно +17.2 +6.4 49 +17 +17 1016.5 936.1
06 25.03 В 4 20 км 4/4 1000 м
[St Ac trans Cs]
+16.0 +7.2 56 +15 +15 1015.7 935.3
09 25.03 В 2 20 км 5/5 1050 м
[Sc]
+14.6 +7.1 61 +15 +15 1015.5 935.0
12 25.03 В 4 6000 м слаб. морось {дождь} 9/8 600 м
[St Ac As]
+11.6 +9.7 88 +9 +9 1017.9 936.2 +10.6 +18.4 3
15 25.03 В 2 10 км гроза без осадков {морось} 10/8 600 м
[Cb cap As trans]
+15.0 +10.6 75 +15 +16 1018.9 937.4
18 25.03 В 4 9000 м слаб. морось {гроза} 10/8 750 м
[St As op]
+14.1 +12.7 91 +13 +13 1018.6 936.8 5
21 25.03 В 5 20 км {морось} 8/8 900 м
[St Ac As]
+16.2 +12.1 77 +15 +15 1017.8 936.2
00 26.03 В 4 20 км {морось} 8/6 900 м
[St Ac As]
+15.1 +12.3 83 +14 +14 1020.5 938.1 +11.0 +16.5
03 26.03 В 4 20 км 6/5 900 м
[St Ac As]
+13.5 +10.3 81 +12 +12 1021.6 939.4

 

Местоположение метеостанции Сан-Луис (Аргентина): широта -33.26 долгота -66.35 высота над уровнем моря 713 м.

В архиве по умолчанию представлена погода в Сан-Луисе за последнюю неделю. Архивные данные за месяц целиком и за предыдущие месяцы, начиная с января 2011 года, Вы можете получить, выбрав интересующий диапазон дат из раскрывающегося списка и нажав кнопку "Ввод!".


*Определитесь, кто Вы:
робот инопланетянин человек

Внимание! Время в таблицах - всемирное. Для получения местного времени необходимо прибавить поправку, которая равна -3 ч.

Смотрите также архив погоды в соседних городах и на ближайших метеорологических станциях:

Погода в Вилья Рейнольдс (Аргентина) (104 км)
Погода в Вилла Долорес (Аргентина) (185 км)
Погода в Сан-Мартине (Аргентина) (193 км)
Погода в Рио-Куарто (Аргентина) (195 км)
Погода в Мендосе (Аргентина) (232 км)
Погода в Сан-Рафаэле (Аргентина) (239 км)
Погода в Сан-Хуане (Аргентина) (283 км)
Погода в Пиларе (Аргентина) (292 км)
Погода в Лабоулайе (Аргентина) (293 км)
Погода в Кордове (Аргентина) (296 км)

Пояснения к столбцам:

Ветер - указаны скорость ветра в м/с - средняя за 10 мин, порывы в срок и между сроками (в фигурных скобках) и направление, откуда дует ветер: С - северный, СВ - северо-восточный, В - восточный, ЮВ - юго-восточный, Ю - южный, ЮЗ - юго-западный, З - западный, СЗ - северо-западный.
Видимость - горизонтальная дальность видимости в метрах или километрах. При видимости от 1 до 10 км при отсутствии осадков обычно наблюдается дымка, при ухудшении видимости до 1 км и менее - туман. В сухую погоду видимость может ухудшаться дымом, пылью или мглою.
Явления - указаны атмосферные явления, наблюдавшиеся в срок или в последний час перед сроком; фигурными скобками обозначены явления, наблюдавшиеся между сроками (за 1-3 часа до срока); квадратными скобками обозначены град или гололедные отложения с указанием их диаметра в мм.
Облачность - указаны через наклонную черту общая и нижняя облачность в баллах и высота нижней границы облаков в метрах; квадратными скобками обозначены формы облаков: Ci - перистые, Cs - перисто-слоистые, Cc - перисто-кучевые, Ac - высококучевые, As - высокослоистые, Sc - слоисто-кучевые, Ns - слоисто-дождевые, Cu - кучевые, Cb - кучево-дождевые. Подробнее классификацию облаков см. в Атласе облаков (PDF).
T - Температура воздуха - температура, измеренная на высоте 2 м над землей.
Td - Температура точки росы - температура, при понижении до которой содержащийся в воздухе водяной пар достигнет насыщения.
f - Относительная влажность воздуха - влажноcть воздуха, измеренная на высоте 2 м над землей.
Te - Эффективная температура - температура, которую ощущает одетый по сезону человек в тени. Характеристика душности погоды. При расчете учитывается влияние влажности воздуха и скорости ветра на теплоощущения человека.
Tes - Эффективная температура на солнце - температура, которую ощущает человек, с поправкой на солнечный нагрев. Характеристика знойности погоды. Зависит от высоты солнца над горизонтом, облачности и скорости ветра. Ночью, в пасмурную погоду, а также при ветре 12 м/с и более поправка равна нулю.
P - Атмосферное давление - приведенное к уровню моря атмосферное давление.
Po - Атмосферное давление - измеренное на уровне метеостанции атмосферное давление.
Tmin - Минимальная температура - минимум температуры воздуха на высоте 2 м над землей.
Tmax - Максимальная температура - максимум температуры воздуха на высоте 2 м над землей.
R - Количество осадков - Количество выпавших осадков за период времени, мм. При наведении курсора мыши на число - период времени, за который выпало указанное количество осадков.
R24 - Количество осадков - Количество выпавших осадков за 24 часа, мм.
S - Снежный покров - Высота снежного покрова, см. При наведении курсора мыши на число - состояние снежного покрова и степень покрытия местности в баллах.